sat.trackr.live / text

‹ back to catalog

STARLINK-33535

NORAD 63417 · 2025-065U

PAYLOAD ACTIVE UNKNOWN

§ Identity

Operator
Country
US
Launch date
2025-03-31
Launch site
AFETR
Launch vehicle
Mass (kg)
RCS (m²)

Purposes: comms

External: N2YO · Heavens-Above · Gunter

§ Orbital elements

Epoch: 2026-05-24T18:08:42.422784Z

Period
94.27 min
Inclination
43.0042°
Eccentricity
0.0001236
Mean motion
15.27587771 rev/d
Perigee alt
482.2 km
Apogee alt
483.9 km
Semi-major
6,861.2 km
B*
5.1292e-4
RAAN
37.3940°
Arg perigee
263.4952°
Mean anomaly
96.5759°
Rev number
6,447

§ Raw data

STARLINK-335351 63417U 25065U   26144.75604656  .00013882  00000+0  51292-3 0  99982 63417  43.0042  37.3940 0001236 263.4952  96.5759 15.27587771 64477

JSON: /api/v1/satellites/63417 · /tle

For live sub-satellite position, see the globe view (requires WebGL).

§ Visibility from observer

Set your observer location to see the next 7 days of passes ≥ 10°. The values pass through the URL so the page stays shareable.

No JS? Fill the form by hand. The geolocation button needs JavaScript.